| time (UTC) | temp F | wind direction | speed MPH | gust MPH | rain 1hr in | rain 24hr in | rain mn in | humidity % | barometer mb |
| 20260507074503 | 50 | 310 | 2.0 | 6.0 | 0.00 | 0.00 | 0.00 | 51 | |
| 20260507073603 | 50 | 34 | 1.0 | 3.0 | 0.00 | 0.00 | 0.00 | 51 | |
| 20260507072916 | 49 | 91 | 0.0 | 2.0 | 0.00 | 0.00 | 0.00 | 54 | |
| 20260507071803 | 48 | 86 | 1.0 | 4.0 | 0.00 | 0.00 | 0.00 | 54 | |
| 20260507070903 | 47 | 86 | 1.0 | 4.0 | 0.00 | 0.00 | 0.00 | 56 | |
| 20260507070005 | 46 | 86 | 1.0 | 4.0 | 0.00 | 0.00 | 0.00 | 56 | |
| 20260507065403 | 46 | 86 | 1.0 | 4.0 | 0.00 | 0.00 | 0.00 | 59 | |
| 20260507064503 | 44 | 86 | 0.0 | 3.0 | 0.00 | 0.00 | 0.00 | 59 | |
| 20260507063603 | 44 | 86 | 0.0 | 2.0 | 0.00 | 0.00 | 0.00 | 60 | |
| 20260507062703 | 44 | 86 | 0.0 | 3.0 | 0.00 | 0.00 | 0.00 | 60 | |
| 20260507061803 | 42 | 86 | 1.0 | 3.0 | 0.00 | 0.00 | 0.00 | 63 | |
| 20260507060903 | 42 | 86 | 1.0 | 3.0 | 0.00 | 0.00 | 0.00 | 65 | |
| 20260507060003 | 40 | 86 | 0.0 | 2.0 | 0.00 | 0.00 | 0.00 | 67 | |
| 20260507055403 | 40 | 86 | 0.0 | 2.0 | 0.00 | 0.00 | 0.00 | 69 | |
| 20260507054716 | 39 | 86 | 0.0 | 1.0 | 0.00 | 0.00 | 0.00 | 71 | |
| 20260507053603 | 38 | 0 | 0.0 | 0.0 | 0.00 | 0.00 | 0.00 | 73 | |
| 20260507052703 | 37 | 0 | 0.0 | 0.0 | 0.00 | 0.00 | 0.00 | 74 | |
| 20260507051803 | 37 | 0 | 0.0 | 0.0 | 0.00 | 0.00 | 0.00 | 73 | |
| 20260507050903 | 37 | 0 | 0.0 | 0.0 | 0.00 | 0.00 | 0.00 | 73 | |
| 20260507050217 | 36 | 0 | 0.0 | 0.0 | 0.00 | 0.00 | 0.00 | 73 | |
| 20260507045403 | 36 | 0 | 0.0 | 0.0 | 0.00 | 0.00 | 0.00 | 73 | |
| 20260507044503 | 36 | 0 | 0.0 | 0.0 | 0.00 | 0.00 | 0.00 | 73 | |
| 20260507043603 | 35 | 0 | 0.0 | 0.0 | 0.00 | 0.00 | 0.00 | 74 | |
| 20260507042703 | 35 | 0 | 0.0 | 0.0 | 0.00 | 0.00 | 0.00 | 75 | |
| 20260507041803 | 35 | 0 | 0.0 | 0.0 | 0.00 | 0.00 | 0.00 | 75 | |
| 20260507040903 | 35 | 0 | 0.0 | 0.0 | 0.00 | 0.00 | 0.00 | 75 | |
| 20260507040003 | 35 | 0 | 0.0 | 0.0 | 0.00 | 0.00 | 0.00 | 75 | |
| 20260507035403 | 35 | 0 | 0.0 | 0.0 | 0.00 | 0.00 | 0.00 | 75 | |
| 20260507034503 | 36 | 0 | 0.0 | 0.0 | 0.00 | 0.00 | 0.00 | 74 | |
| 20260507033603 | 36 | 0 | 0.0 | 0.0 | 0.00 | 0.00 | 0.00 | 74 | |
| 20260507032703 | 36 | 0 | 0.0 | 0.0 | 0.00 | 0.00 | 0.00 | 74 | |
| 20260507031803 | 36 | 0 | 0.0 | 0.0 | 0.00 | 0.00 | 0.00 | 73 | |
| 20260507030903 | 36 | 0 | 0.0 | 0.0 | 0.00 | 0.00 | 0.00 | 72 | |
| 20260507030003 | 36 | 0 | 0.0 | 0.0 | 0.00 | 0.00 | 0.00 | 71 | |
| 20260507025403 | 36 | 0 | 0.0 | 0.0 | 0.00 | 0.00 | 0.00 | 71 | |
| 20260507024503 | 36 | 0 | 0.0 | 0.0 | 0.00 | 0.00 | 0.00 | 71 | |
| 20260507023603 | 37 | 0 | 0.0 | 0.0 | 0.00 | 0.00 | 0.00 | 70 | |
| 20260507022703 | 37 | 0 | 0.0 | 0.0 | 0.00 | 0.00 | 0.00 | 70 | |
| 20260507021803 | 37 | 0 | 0.0 | 0.0 | 0.00 | 0.00 | 0.00 | 68 | |
| 20260507020903 | 38 | 0 | 0.0 | 0.0 | 0.00 | 0.00 | 0.00 | 68 | |
| 20260507020003 | 38 | 0 | 0.0 | 0.0 | 0.00 | 0.00 | 0.00 | 68 | |
| 20260507015403 | 38 | 0 | 0.0 | 0.0 | 0.00 | 0.00 | 0.00 | 69 | |
| 20260507014503 | 38 | 0 | 0.0 | 0.0 | 0.00 | 0.00 | 0.00 | 71 | |
| 20260507013603 | 38 | 0 | 0.0 | 0.0 | 0.00 | 0.00 | 0.00 | 70 | |
| 20260507012703 | 38 | 0 | 0.0 | 0.0 | 0.00 | 0.00 | 0.00 | 69 | |
| 20260507012017 | 38 | 0 | 0.0 | 0.0 | 0.00 | 0.00 | 0.00 | 69 | |
| 20260507010903 | 38 | 0 | 0.0 | 0.0 | 0.00 | 0.00 | 0.00 | 68 | |
| 20260507010003 | 38 | 0 | 0.0 | 0.0 | 0.00 | 0.00 | 0.00 | 67 | |
| 20260507005403 | 38 | 0 | 0.0 | 0.0 | 0.00 | 0.00 | 0.00 | 67 | |
| 20260507004503 | 38 | 86 | 0.0 | 1.0 | 0.00 | 0.00 | 0.00 | 66 | |
| 20260507003818 | 38 | 86 | 0.0 | 1.0 | 0.00 | 0.00 | 0.00 | 66 | |
| 20260507002703 | 37 | 0 | 0.0 | 0.0 | 0.00 | 0.00 | 0.00 | 64 | |
| 20260507001803 | 37 | 0 | 0.0 | 0.0 | 0.00 | 0.00 | 0.00 | 62 | |
| 20260507000903 | 37 | 0 | 0.0 | 0.0 | 0.00 | 0.00 | 0.00 | 61 | |
| 20260507000003 | 37 | 0 | 0.0 | 0.0 | 0.00 | 0.00 | 0.00 | 61 | |
| 20260506235403 | 37 | 0 | 0.0 | 0.0 | 0.00 | 0.00 | 0.00 | 61 | |
| 20260506234718 | 37 | 0 | 0.0 | 0.0 | 0.00 | 0.00 | 0.00 | 60 | |
| 20260506233603 | 37 | 0 | 0.0 | 0.0 | 0.00 | 0.00 | 0.00 | 60 | |
| 20260506232917 | 37 | 0 | 0.0 | 0.0 | 0.00 | 0.00 | 0.00 | 60 | |
| 20260506231803 | 38 | 0 | 0.0 | 0.0 | 0.00 | 0.00 | 0.00 | 59 | |
| 20260506230903 | 38 | 86 | 0.0 | 1.0 | 0.00 | 0.00 | 0.00 | 59 | |
| 20260506230003 | 38 | 0 | 0.0 | 0.0 | 0.00 | 0.00 | 0.00 | 58 | |
| 20260506225618 | 38 | 0 | 0.0 | 0.0 | 0.00 | 0.00 | 0.00 | 58 | |
| 20260506224503 | 38 | 0 | 0.0 | 0.0 | 0.00 | 0.00 | 0.00 | 57 | |
| 20260506223603 | 39 | 85 | 0.0 | 1.0 | 0.00 | 0.00 | 0.00 | 55 | |
| 20260506222703 | 39 | 93 | 0.0 | 1.0 | 0.00 | 0.00 | 0.00 | 54 | |
| 20260506221803 | 39 | 0 | 0.0 | 0.0 | 0.00 | 0.00 | 0.00 | 53 | |
| 20260506221119 | 39 | 0 | 0.0 | 0.0 | 0.00 | 0.00 | 0.00 | 55 | |
| 20260506220003 | 40 | 0 | 0.0 | 0.0 | 0.00 | 0.00 | 0.00 | 55 | |
| 20260506215403 | 40 | 0 | 0.0 | 0.0 | 0.00 | 0.00 | 0.00 | 54 | |
| 20260506214503 | 40 | 0 | 0.0 | 0.0 | 0.00 | 0.00 | 0.00 | 51 | |
| 20260506213603 | 41 | 0 | 0.0 | 0.0 | 0.00 | 0.00 | 0.00 | 52 | |
| 20260506212916 | 41 | 129 | 0.0 | 1.0 | 0.00 | 0.00 | 0.00 | 51 | |
| 20260506212015 | 42 | 0 | 0.0 | 0.0 | 0.00 | 0.00 | 0.00 | 49 | |
| 20260506210903 | 44 | 137 | 0.0 | 4.0 | 0.00 | 0.00 | 0.00 | 44 | |
| 20260506210218 | 44 | 184 | 0.0 | 6.0 | 0.00 | 0.00 | 0.00 | 42 | |
| 20260506205403 | 45 | 183 | 1.0 | 6.0 | 0.00 | 0.00 | 0.00 | 41 | |
| 20260506204503 | 46 | 163 | 1.0 | 7.0 | 0.00 | 0.00 | 0.00 | 39 | |
| 20260506203603 | 46 | 176 | 2.0 | 12.0 | 0.00 | 0.00 | 0.00 | 38 | |
| 20260506202703 | 46 | 170 | 2.0 | 10.0 | 0.00 | 0.00 | 0.00 | 39 | |
| 20260506201803 | 45 | 154 | 2.0 | 12.0 | 0.00 | 0.00 | 0.00 | 42 | |
| 20260506200903 | 45 | 131 | 2.0 | 9.0 | 0.00 | 0.00 | 0.00 | 44 | |
| 20260506200003 | 45 | 141 | 1.0 | 6.0 | 0.00 | 0.00 | 0.00 | 45 | |
| 20260506195403 | 45 | 127 | 1.0 | 6.0 | 0.00 | 0.00 | 0.00 | 46 | |
| 20260506194503 | 45 | 138 | 1.0 | 6.0 | 0.00 | 0.00 | 0.00 | 45 | |
| 20260506193605 | 46 | 152 | 0.0 | 5.0 | 0.00 | 0.00 | 0.00 | 47 | |
| 20260506192703 | 45 | 131 | 1.0 | 6.0 | 0.00 | 0.00 | 0.00 | 48 | |
| 20260506191803 | 45 | 99 | 0.0 | 3.0 | 0.00 | 0.00 | 0.00 | 49 | |
| 20260506190903 | 46 | 101 | 0.0 | 2.0 | 0.00 | 0.00 | 0.00 | 44 | |
| 20260506190003 | 46 | 132 | 0.0 | 2.0 | 0.00 | 0.00 | 0.00 | 44 | |
| 20260506185403 | 46 | 277 | 0.0 | 2.0 | 0.00 | 0.00 | 0.00 | 42 | |
| 20260506184503 | 47 | 287 | 1.0 | 2.0 | 0.00 | 0.00 | 0.00 | 40 | |
| 20260506183603 | 48 | 287 | 0.0 | 2.0 | 0.00 | 0.00 | 0.00 | 40 | |
| 20260506182703 | 49 | 288 | 0.0 | 1.0 | 0.00 | 0.00 | 0.00 | 38 | |
| 20260506181803 | 51 | 0 | 0.0 | 0.0 | 0.00 | 0.00 | 0.00 | 35 | |
| 20260506180903 | 54 | 287 | 1.0 | 3.0 | 0.00 | 0.00 | 0.00 | 29 | |
| 20260506180004 | 55 | 287 | 2.0 | 3.0 | 0.00 | 0.00 | 0.00 | 27 | |
| 20260506175403 | 55 | 288 | 2.0 | 4.0 | 0.00 | 0.00 | 0.00 | 26 | |
| 20260506174503 | 55 | 291 | 2.0 | 4.0 | 0.00 | 0.00 | 0.00 | 27 | |
| 20260506173603 | 55 | 278 | 3.0 | 7.0 | 0.00 | 0.00 | 0.00 | 26 | |
| 20260506172919 | 55 | 272 | 3.0 | 7.0 | 0.00 | 0.00 | 0.00 | 27 | |
| 20260506171803 | 56 | 292 | 4.0 | 10.0 | 0.00 | 0.00 | 0.00 | 25 | |
| 20260506170903 | 56 | 266 | 4.0 | 10.0 | 0.00 | 0.00 | 0.00 | 25 | |
| 20260506170217 | 56 | 285 | 4.0 | 6.0 | 0.00 | 0.00 | 0.00 | 25 | |
| 20260506165403 | 56 | 295 | 4.0 | 12.0 | 0.00 | 0.00 | 0.00 | 26 | |
| 20260506164716 | 56 | 278 | 5.0 | 12.0 | 0.00 | 0.00 | 0.00 | 25 | |
| 20260506163603 | 57 | 263 | 2.0 | 10.0 | 0.00 | 0.00 | 0.00 | 25 | |
| 20260506162918 | 57 | 252 | 2.0 | 5.0 | 0.00 | 0.00 | 0.00 | 24 | |
| 20260506161803 | 57 | 277 | 4.0 | 9.0 | 0.00 | 0.00 | 0.00 | 23 | |
| 20260506160903 | 57 | 268 | 4.0 | 12.0 | 0.00 | 0.00 | 0.00 | 24 | |
| 20260506160003 | 57 | 278 | 5.0 | 10.0 | 0.00 | 0.00 | 0.00 | 22 | |
| 20260506155403 | 56 | 268 | 5.0 | 15.0 | 0.00 | 0.00 | 0.00 | 22 | |
| 20260506154503 | 57 | 280 | 5.0 | 15.0 | 0.00 | 0.00 | 0.00 | 23 | |
| 20260506153603 | 57 | 267 | 4.0 | 11.0 | 0.00 | 0.00 | 0.00 | 23 | |
| 20260506152703 | 58 | 269 | 5.0 | 12.0 | 0.00 | 0.00 | 0.00 | 23 | |
| 20260506151803 | 58 | 268 | 3.0 | 12.0 | 0.00 | 0.00 | 0.00 | 22 | |
| 20260506150903 | 57 | 265 | 3.0 | 9.0 | 0.00 | 0.00 | 0.00 | 22 | |
| 20260506150003 | 57 | 265 | 3.0 | 7.0 | 0.00 | 0.00 | 0.00 | 24 | |
| 20260506145403 | 57 | 303 | 3.0 | 7.0 | 0.00 | 0.00 | 0.00 | 26 | |
| 20260506144503 | 55 | 283 | 2.0 | 5.0 | 0.00 | 0.00 | 0.00 | 24 | |
| 20260506143603 | 54 | 284 | 3.0 | 5.0 | 0.00 | 0.00 | 0.00 | 24 | |
| 20260506142703 | 55 | 268 | 4.0 | 10.0 | 0.00 | 0.00 | 0.00 | 23 | |
| 20260506142017 | 56 | 264 | 5.0 | 12.0 | 0.00 | 0.00 | 0.00 | 24 | |
| 20260506140903 | 57 | 270 | 4.0 | 17.0 | 0.00 | 0.00 | 0.00 | 23 | |
| 20260506140003 | 56 | 285 | 1.0 | 5.0 | 0.00 | 0.00 | 0.00 | 25 | |
| 20260506135403 | 55 | 336 | 1.0 | 3.0 | 0.00 | 0.00 | 0.00 | 27 | |
| 20260506134503 | 55 | 279 | 2.0 | 5.0 | 0.00 | 0.00 | 0.00 | 25 | |
| 20260506133603 | 55 | 156 | 3.0 | 10.0 | 0.00 | 0.00 | 0.00 | 24 | |
| 20260506132703 | 56 | 178 | 4.0 | 8.0 | 0.00 | 0.00 | 0.00 | 23 | |
| 20260506131803 | 55 | 146 | 3.0 | 12.0 | 0.00 | 0.00 | 0.00 | 24 | |
| 20260506130903 | 55 | 284 | 2.0 | 5.0 | 0.00 | 0.00 | 0.00 | 24 | |
| 20260506130003 | 55 | 244 | 3.0 | 11.0 | 0.00 | 0.00 | 0.00 | 23 | |
| 20260506125403 | 55 | 185 | 2.0 | 8.0 | 0.00 | 0.00 | 0.00 | 24 | |
| 20260506124503 | 54 | 285 | 1.0 | 4.0 | 0.00 | 0.00 | 0.00 | 25 | |
| 20260506123603 | 54 | 250 | 2.0 | 6.0 | 0.00 | 0.00 | 0.00 | 25 | |
| 20260506122703 | 56 | 232 | 4.0 | 11.0 | 0.00 | 0.00 | 0.00 | 23 | |
| 20260506121803 | 56 | 279 | 2.0 | 7.0 | 0.00 | 0.00 | 0.00 | 24 | |
| 20260506120903 | 55 | 301 | 2.0 | 7.0 | 0.00 | 0.00 | 0.00 | 26 | |
| 20260506120219 | 54 | 263 | 2.0 | 7.0 | 0.00 | 0.00 | 0.00 | 27 | |
| 20260506115403 | 53 | 258 | 3.0 | 7.0 | 0.00 | 0.00 | 0.00 | 24 | |
| 20260506114503 | 54 | 220 | 3.0 | 9.0 | 0.00 | 0.00 | 0.00 | 25 | |
| 20260506113817 | 55 | 163 | 3.0 | 11.0 | 0.00 | 0.00 | 0.00 | 24 | |
| 20260506112703 | 54 | 216 | 3.0 | 7.0 | 0.00 | 0.00 | 0.00 | 26 | |
| 20260506111803 | 54 | 209 | 3.0 | 10.0 | 0.00 | 0.00 | 0.00 | 25 | |
| 20260506110903 | 54 | 193 | 3.0 | 10.0 | 0.00 | 0.00 | 0.00 | 25 | |
| 20260506110218 | 54 | 203 | 3.0 | 9.0 | 0.00 | 0.00 | 0.00 | 27 | |
| 20260506105403 | 53 | 306 | 1.0 | 4.0 | 0.00 | 0.00 | 0.00 | 27 | |
| 20260506104503 | 51 | 270 | 1.0 | 4.0 | 0.00 | 0.00 | 0.00 | 27 | |
| 20260506103603 | 51 | 267 | 2.0 | 8.0 | 0.00 | 0.00 | 0.00 | 26 | |
| 20260506102916 | 52 | 274 | 4.0 | 9.0 | 0.00 | 0.00 | 0.00 | 27 | |
| 20260506101803 | 52 | 249 | 2.0 | 7.0 | 0.00 | 0.00 | 0.00 | 29 | |
| 20260506100903 | 51 | 280 | 3.0 | 7.0 | 0.00 | 0.00 | 0.00 | 26 | |
| 20260506100218 | 50 | 277 | 3.0 | 7.0 | 0.00 | 0.00 | 0.00 | 29 | |
| 20260506095403 | 51 | 240 | 2.0 | 6.0 | 0.00 | 0.00 | 0.00 | 28 | |
| 20260506094503 | 51 | 266 | 2.0 | 6.0 | 0.00 | 0.00 | 0.00 | 30 | |
| 20260506093603 | 52 | 280 | 2.0 | 7.0 | 0.00 | 0.00 | 0.00 | 28 | |
| 20260506092703 | 52 | 247 | 2.0 | 6.0 | 0.00 | 0.00 | 0.00 | 28 | |
| 20260506091803 | 53 | 278 | 3.0 | 7.0 | 0.00 | 0.00 | 0.00 | 28 | |
| 20260506090903 | 52 | 272 | 2.0 | 5.0 | 0.00 | 0.00 | 0.00 | 28 | |
| 20260506090003 | 52 | 187 | 3.0 | 9.0 | 0.00 | 0.00 | 0.00 | 30 | |
| 20260506085403 | 52 | 139 | 3.0 | 9.0 | 0.00 | 0.00 | 0.00 | 30 | |
| 20260506084503 | 52 | 126 | 3.0 | 7.0 | 0.00 | 0.00 | 0.00 | 33 | |
| 20260506083603 | 52 | 136 | 3.0 | 9.0 | 0.00 | 0.00 | 0.00 | 33 | |
| 20260506082919 | 51 | 136 | 3.0 | 9.0 | 0.00 | 0.00 | 0.00 | 35 | |
| 20260506081803 | 50 | 165 | 3.0 | 10.0 | 0.00 | 0.00 | 0.00 | 37 | |
| 20260506080903 | 50 | 162 | 2.0 | 10.0 | 0.00 | 0.00 | 0.00 | 37 |